Weather Roundup
Issued by NWS

Home | Current Version | Previous Version | Graphics & Text | Print | Product List | Glossary Off
Versions: 1 2 3 4 5 6 7 8 9 10 11 12 13 14 15 16 17 18 19 20 21 22 23 24 25 26 27 28 29 30 31 32 33 34 35 36 37 38 39 40 41 42 43 44 45 46 47 48 49 50

000
NZUS93 KARX 010359
HRRWXR

CURRENT HOURLY OBSERVATIONS ACROSS
MUCH OF THE UPPER MISSISSIPPI VALLEY
NATIONAL WEATHER SERVICE LA CROSSE WI
1100 PM CDT TUE JUN 30 2015


...SOUTHEAST MINNESOTA...


CITY           SKY/WX    TMP DP  RH WIND       PRES   REMARKS
ROCHESTER      CLEAR     63  54  72 NE3       29.97R
ROCHESTER/MAYO FAIR      65  55  70 NE3       29.96S
WINONA         CLEAR     63  52  67 E5        29.95F
AUSTIN         PTCLDY    63  57  82 CALM      29.95F
ALBERT LEA     PTCLDY    64  57  77 E5        29.94F
DODGE CENTER   PTCLDY    61  57  88 NE3       29.96F
PRESTON        PTCLDY    60  55  81 N3        29.96S
OWATONNA       MOCLDY    63  57  82 E3        29.95F
FARIBAULT      MOCLDY    64  57  77 NE5       29.95S
$$

...ELSEWHERE IN MINNESOTA...


CITY           SKY/WX    TMP DP  RH WIND       PRES   REMARKS
MINNEAPOLIS    MOCLDY    67  55  65 E8        29.96R
INTNL FALLS    MOCLDY    52  50  93 CALM      29.96S
DULUTH         CLEAR     51  46  83 E5        29.99R
RED WING       CLEAR     63  54  72 E7        29.95S
REDWOOD FALLS  MOCLDY    67  60  78 E6        29.92S
MANKATO        MOCLDY    66  57  72 E8        29.94S
WORTHINGTON    CLOUDY    63  57  82 E6        29.94S
FAIRMONT       CLOUDY    64  57  77 E6        29.93F
$$

...SOUTHWEST WISCONSIN...


CITY           SKY/WX    TMP DP  RH WIND       PRES   REMARKS
LA CROSSE      CLEAR     63  55  75 N6        29.94R
PRAIRIE DU CHI CLEAR     62  56  79 CALM      29.92S
BOSCOBEL       PTCLDY    61  58  90 CALM      29.94R
LONE ROCK      NOT AVBL
PLATTEVILLE    CLEAR     62  59  91 N5        29.93R
FORT MC COY    PTCLDY    55  52  89 CALM      29.96R
CAMP DOUGLAS   PTCLDY    54  54 100 VRB2      29.94S
VIROQUA        FAIR      58  56  93 CALM      29.96R
WIS DELLS      MOCLDY    61  53  76 CALM      29.93F
$$

...ELSEWHERE IN WISCONSIN...


CITY           SKY/WX    TMP DP  RH WIND       PRES   REMARKS
MILWAUKEE      MOCLDY    54  50  86 NE7       29.94R
MADISON        PTCLDY    62  54  74 N3        29.91S
GREEN BAY      CLEAR     53  49  86 N7        29.96R
EAU CLAIRE     CLEAR     57  48  72 NE6       29.96S
BLACK RVR FLS  FAIR      59  56  91 N3        29.96R
MEDFORD        CLEAR     51  47  86 CALM      29.98S
WAUSAU         CLEAR     54  46  74 N6        29.96S
WIS RAPIDS     CLEAR     59  46  62 NE9       29.97R
MARSHFIELD     CLEAR     58  44  60 NE8       29.97R
RICE LAKE      CLEAR     56  49  77 NE6       30.00S
$$

...NORTHEAST IOWA...


CITY           SKY/WX    TMP DP  RH WIND       PRES   REMARKS
DECORAH          N/A    N/A N/A N/A MISG        N/A
MASON CITY     MOCLDY    64  60  87 E3        29.95S
CHARLES CITY   MOCLDY    63  63 100 NE5       29.95S
OELWEIN        MOCLDY    63  61  94 CALM      29.95R
$$

...ELSEWHERE IN IOWA...


CITY           SKY/WX    TMP DP  RH WIND       PRES   REMARKS
DES MOINES     CLOUDY    75  64  68 VRB3      29.89F
IOWA CITY      PTCLDY    69  62  78 NE7       29.91S
FORT DODGE     CLOUDY    68  61  77 NE6       29.93F
$$

...NORTHERN ILLINOIS...


CITY           SKY/WX    TMP DP  RH WIND       PRES   REMARKS
CHICAGO-OHARE  MOCLDY    59  53  80 NE7       29.92R
CHICAGO-MIDWAY PTCLDY    62  55  77 NE10      29.92R
MOLINE         PTCLDY    67  63  87 CALM      29.90R
ROCKFORD       PTCLDY    68  60  75 E10       29.91R
PEORIA         CLEAR     71  63  75 E6        29.90R
$$

NOTE: "FAIR" INDICATES FEW OR NO CLOUDS BELOW 12,000 FEET WITH NO
SIGNIFICANT WEATHER AND/OR OBSTRUCTIONS TO VISIBILITY. WIND
SPEEDS ARE IN MILES-PER-HOUR.



USA.gov is the U.S. government's official web portal to all federal, state and local government web resources and services.